This is the latest recevied weather packets stored in our database for station/object K7SKM. If no packets are shown the sender has not sent any weather packets the latest 10 day(s).
| Time | Temp. | Humidity | Pressure | Rain* | Wind** | Luminosity | Snow |
|---|---|---|---|---|---|---|---|
| 1777650342 | 13.33° C | 73% | 1021.8 hPa | 0 mm | - | 112 W/m² | - |
| 1777650039 | 13.33° C | 73% | 1021.9 hPa | 0 mm | - | 89 W/m² | - |
| 1777649737 | 13.33° C | 75% | 1022 hPa | 0 mm | - | 70 W/m² | - |
| 1777649433 | 12.78° C | 75% | 1022 hPa | 0 mm | - | 62 W/m² | - |
| 1777649130 | 12.78° C | 76% | 1021.9 hPa | 0 mm | - | 61 W/m² | - |
| 1777648827 | 12.22° C | 77% | 1021.9 hPa | 0 mm | - | 58 W/m² | - |
| 1777648524 | 12.22° C | 77% | 1021.9 hPa | 0 mm | - | 55 W/m² | - |
| 1777648221 | 12.22° C | 78% | 1021.8 hPa | 0 mm | - | 51 W/m² | - |
| 1777647916 | 11.67° C | 78% | 1021.9 hPa | 0 mm | - | 50 W/m² | - |
| 1777647613 | 11.67° C | 78% | 1021.9 hPa | 0 mm | - | 58 W/m² | - |
| 1777647309 | 11.11° C | 79% | 1021.9 hPa | 0 mm | - | 65 W/m² | - |
| 1777647008 | 11.11° C | 80% | 1021.9 hPa | 0 mm | - | 61 W/m² | - |
| 1777646703 | 10.56° C | 80% | 1021.7 hPa | 0 mm | - | 85 W/m² | - |
| 1777646398 | 10.56° C | 80% | 1021.9 hPa | 0 mm | - | 122 W/m² | - |
| 1777646095 | 10° C | 82% | 1021.8 hPa | 0 mm | - | 112 W/m² | - |
| 1777645791 | 10° C | 83% | 1021.7 hPa | 0 mm | - | 64 W/m² | - |
| 1777645490 | 10° C | 83% | 1021.5 hPa | 0 mm | - | 99 W/m² | - |
| 1777645184 | 9.44° C | 83% | 1021.7 hPa | 0 mm | - | 81 W/m² | - |
| 1777644881 | 9.44° C | 83% | 1021.4 hPa | 0 mm | - | 50 W/m² | - |
| 1777644579 | 9.44° C | 84% | 1021.5 hPa | 0 mm | - | 57 W/m² | - |
| 1777644274 | 9.44° C | 84% | 1021.4 hPa | 0 mm | - | 49 W/m² | - |
| 1777643971 | 9.44° C | 84% | 1021.3 hPa | 0 mm | - | 68 W/m² | - |
| 1777643668 | 8.89° C | 85% | 1021.3 hPa | 0 mm | - | 49 W/m² | - |
| 1777643366 | 8.89° C | 85% | 1021.4 hPa | 0 mm | - | 25 W/m² | - |
| 1777643062 | 8.89° C | 85% | 1021.4 hPa | 0 mm | - | 24 W/m² | - |
* Rain latest hour (hover to see other rain measurements)
** Current wind speed in m/s (hover to see current wind gust speed)